Change the Weather History Date:

Sunday, May 25, 2014

  Actual Average Record
Temperature  
Mean Temperature 74 °F -  
Max Temperature 78 °F 81 °F 86 °F (1985)
Min Temperature 69 °F 68 °F 59 °F (1957)
Cooling Degree Days 8    
Growing Degree Days 24 (Base 50)    
Moisture  
Dew Point 71 °F    
Average Humidity 96    
Maximum Humidity 100    
Minimum Humidity 82    
Precipitation  
Precipitation 0.48 in - - ()
Sea Level Pressure  
Sea Level Pressure 30.05 in    
Wind  
Wind Speed 4 mph (NW)    
Max Wind Speed 9 mph    
Max Gust Speed -    
Visibility 7 miles    
Events Rain    
Averages and records for this station are not official NWS values.
T = Trace of Precipitation, MM = Missing Value Source: NWS Daily Summary

Daily Weather History Graph

Daily Weather History Graph

Search for Another Location

Airport or City:

Trip Planner

Search our weather history database for the weather conditions in past years. The results will help you decide how hot, cold, wet, or windy it might be!

Date:

Astronomy

May. 25, 2014 Rise Set
Actual Time 5:47 AM HST 7:03 PM HST
Civil Twilight 5:22 AM HST 7:27 PM HST
Nautical Twilight 4:54 AM HST 7:56 PM HST
Astronomical Twilight 4:24 AM HST 8:26 PM HST
Moon 3:35 AM HST (5/25) 4:35 PM HST (5/25)
Length of Visible Light 14h 04m
Length of Day
13h 16m
Waning Crescent, 9% of the Moon is Illuminated
May 25
Waning Crescent
May 28
New
Jun 5
First Quarter
Jun 12
Full
Jun 19
Last Quarter

Hourly Weather History & Observations

Time (HST) Temp. Dew Point Humidity Pressure Visibility Wind Dir Wind Speed Gust Speed Precip Events Conditions
12:54 AM 70.0 °F 70.0 °F 100% 30.06 in 10.0 mi ENE 3.5 mph - N/A   Overcast
1:07 AM 69.8 °F 69.8 °F 100% 30.04 in 10.0 mi East 4.6 mph - N/A   Overcast
1:21 AM 69.8 °F 69.8 °F 100% 30.04 in 10.0 mi Calm Calm - N/A   Overcast
1:54 AM 70.0 °F 70.0 °F 100% 30.05 in 7.0 mi ESE 3.5 mph - 0.00 in Rain Light Rain
2:54 AM 69.1 °F 69.1 °F 100% 30.04 in 4.0 mi Calm Calm - 0.01 in Rain Light Rain
3:14 AM 69.8 °F 69.8 °F 100% 30.03 in 5.0 mi West 3.5 mph - 0.00 in Rain Light Rain
3:23 AM 69.8 °F 69.8 °F 100% 30.04 in 1.8 mi Calm Calm - 0.03 in Rain Heavy Rain
3:30 AM 69.8 °F 69.8 °F 100% 30.04 in 1.2 mi WSW 3.5 mph - 0.13 in Rain Heavy Rain
3:38 AM 69.8 °F 69.8 °F 100% 30.04 in 2.0 mi Calm Calm - 0.18 in Rain Heavy Rain
3:45 AM 69.8 °F 69.8 °F 100% 30.04 in 2.5 mi West 3.5 mph - 0.20 in Rain Rain
3:54 AM 69.1 °F 69.1 °F 100% 30.05 in 3.0 mi NW 5.8 mph - 0.23 in Rain Rain
4:01 AM 69.8 °F 69.8 °F 100% 30.03 in 2.0 mi NW 5.8 mph - 0.03 in Rain Heavy Rain
4:16 AM 69.8 °F 69.8 °F 100% 30.04 in 4.0 mi NW 5.8 mph - 0.09 in Rain Light Rain
4:25 AM 69.8 °F 69.8 °F 100% 30.03 in 3.0 mi North 3.5 mph - 0.10 in Rain Light Rain
4:49 AM 69.8 °F 69.8 °F 100% 30.03 in 2.5 mi ENE 5.8 mph - 0.18 in Rain Rain
4:54 AM 69.1 °F 69.1 °F 100% 30.04 in 3.0 mi ENE 6.9 mph - 0.20 in Rain Rain
5:54 AM 69.1 °F 69.1 °F 100% 30.04 in 10.0 mi Calm Calm - 0.01 in   Overcast
6:54 AM 70.0 °F 70.0 °F 100% 30.04 in 10.0 mi Calm Calm - N/A   Partly Cloudy
7:54 AM 73.9 °F 72.0 °F 93% 30.07 in 10.0 mi SSW 3.5 mph - N/A   Clear
8:54 AM 73.9 °F 73.0 °F 97% 30.07 in 10.0 mi South 3.5 mph - N/A   Mostly Cloudy
9:23 AM 73.4 °F 73.4 °F 100% 30.06 in 10.0 mi Calm Calm - N/A   Scattered Clouds
9:54 AM 73.9 °F 72.0 °F 93% 30.08 in 10.0 mi Calm Calm - N/A   Overcast
10:38 AM 75.2 °F 73.4 °F 94% 30.06 in 10.0 mi SE 9.2 mph - N/A   Mostly Cloudy
10:54 AM 75.0 °F 73.9 °F 96% 30.07 in 10.0 mi SE 8.1 mph - N/A   Mostly Cloudy
11:54 AM 75.0 °F 73.0 °F 94% 30.05 in 10.0 mi South 4.6 mph - 0.00 in   Mostly Cloudy
12:11 PM 75.2 °F 71.6 °F 89% 30.05 in 10.0 mi NNW 3.5 mph - N/A   Mostly Cloudy
12:45 PM 75.2 °F 73.4 °F 94% 30.04 in 10.0 mi NW 5.8 mph - N/A   Mostly Cloudy
12:54 PM 75.9 °F 73.0 °F 91% 30.05 in 10.0 mi NNW 4.6 mph - N/A   Mostly Cloudy
1:54 PM 78.1 °F 73.9 °F 87% 30.04 in 10.0 mi Variable 4.6 mph - 0.00 in   Overcast
2:54 PM 75.0 °F 71.1 °F 87% 30.04 in 10.0 mi WNW 8.1 mph - N/A   Overcast
3:11 PM 71.6 °F 71.6 °F 100% 30.03 in 2.0 mi West 6.9 mph - 0.02 in Rain Rain
3:28 PM 71.6 °F 71.6 °F 100% 30.02 in 10.0 mi NW 6.9 mph - 0.03 in Rain Rain
3:54 PM 73.0 °F 73.0 °F 100% 30.03 in 10.0 mi NNW 4.6 mph - 0.03 in   Overcast
4:54 PM 75.9 °F 70.0 °F 82% 30.02 in 10.0 mi NNE 4.6 mph - N/A   Overcast
5:54 PM 75.0 °F 70.0 °F 84% 30.04 in 10.0 mi Calm Calm - N/A   Overcast
6:45 PM 71.6 °F 69.8 °F 94% 30.04 in 1.5 mi Variable 4.6 mph - 0.00 in Rain Light Rain
6:54 PM 72.0 °F 68.0 °F 87% 30.06 in 1.0 mi West 3.5 mph - 0.00 in Rain Light Rain
6:59 PM 71.6 °F 69.8 °F 94% 30.05 in 2.0 mi WSW 5.8 mph - 0.00 in Rain Light Rain
7:07 PM 71.6 °F 69.8 °F 94% 30.05 in 10.0 mi WSW 6.9 mph - 0.00 in   Overcast
7:54 PM 70.0 °F 70.0 °F 100% 30.07 in 10.0 mi NW 3.5 mph - 0.00 in   Overcast
8:54 PM 72.0 °F 70.0 °F 93% 30.08 in 10.0 mi North 3.5 mph - N/A   Mostly Cloudy
9:54 PM 73.0 °F 71.1 °F 93% 30.09 in 10.0 mi NNE 3.5 mph - N/A   Overcast
10:54 PM 72.0 °F 71.1 °F 97% 30.08 in 10.0 mi NNE 4.6 mph - N/A   Overcast
11:54 PM 73.0 °F 71.1 °F 93% 30.07 in 10.0 mi ENE 5.8 mph - N/A   Overcast